Weather History for KRAC - March, 2012

Change the Weather History Date:

Tuesday, March 13, 2012

  Actual Average Record
Temperature  
Mean Temperature 55 °F -  
Max Temperature 64 °F 40 °F 76 °F (1990)
Min Temperature 46 °F 26 °F 1 °F (2013)
Degree Days  
Heating Degree Days 10    
Growing Degree Days 5 (Base 50)    
Moisture  
Dew Point 36 °F    
Average Humidity 59    
Maximum Humidity 90    
Minimum Humidity 28    
Precipitation  
Precipitation 0.00 in - - ()
Sea Level Pressure  
Sea Level Pressure 30.04 in    
Wind  
Wind Speed 8 mph (SW)    
Max Wind Speed 12 mph    
Max Gust Speed 17 mph    
Visibility 10 miles    
Events      
Averages and records for this station are not official NWS values.
T = Trace of Precipitation, MM = Missing Value Source: NWS Daily Summary

Daily Weather History Graph

Daily Weather History Graph

Search for Another Location

Airport or City:

Trip Planner

Search our weather history database for the weather conditions in past years. The results will help you decide how hot, cold, wet, or windy it might be!

Date:

Astronomy

Mar. 13, 2012 Rise Set
Actual Time 7:05 AM CDT 6:55 PM CDT
Civil Twilight 6:37 AM CDT 7:24 PM CDT
Nautical Twilight 6:04 AM CDT 7:56 PM CDT
Astronomical Twilight 5:31 AM CDT 8:30 PM CDT
Moon 12:36 AM CDT (3/13) 10:09 AM CDT (3/13)
Length of Visible Light 12h 46m
Length of Day
11h 50m
Waning Gibbous, 65% of the Moon is Illuminated
Mar 13
Waning Gibbous
Mar 14
Last Quarter
Mar 22
New
Mar 30
First Quarter
Apr 6
Full

Hourly Weather History & Observations

Time (CDT) Temp. Windchill Dew Point Humidity Pressure Visibility Wind Dir Wind Speed Gust Speed Precip Events Conditions
12:53 AM 48.9 °F - 45.0 °F 86% 29.88 in 10.0 mi SW 6.9 mph - N/A   Clear
1:53 AM 48.0 °F - 44.1 °F 86% 29.90 in 10.0 mi SW 6.9 mph - N/A   Clear
2:53 AM 48.0 °F - 44.1 °F 86% 29.91 in 10.0 mi SW 6.9 mph - N/A   Partly Cloudy
3:53 AM 48.0 °F - 44.1 °F 86% 29.92 in 10.0 mi SW 8.1 mph - N/A   Partly Cloudy
4:53 AM 46.9 °F - 44.1 °F 90% 29.95 in 9.0 mi WSW 5.8 mph - N/A   Clear
5:53 AM 48.0 °F - 44.1 °F 86% 29.99 in 9.0 mi West 5.8 mph - N/A   Clear
6:53 AM 46.0 °F 43.1 °F 43.0 °F 89% 30.01 in 8.0 mi WSW 5.8 mph - N/A   Clear
7:53 AM 46.0 °F 42.5 °F 43.0 °F 89% 30.04 in 6.0 mi WSW 6.9 mph - N/A   Clear
8:53 AM 50.0 °F - 42.1 °F 74% 30.06 in 9.0 mi West 11.5 mph - N/A   Clear
9:53 AM 53.1 °F - 39.0 °F 59% 30.08 in 10.0 mi WNW 11.5 mph 16.1 mph N/A   Clear
10:53 AM 55.9 °F - 36.0 °F 47% 30.10 in 10.0 mi WNW 10.4 mph - N/A   Clear
11:53 AM 57.0 °F - 32.0 °F 39% 30.10 in 10.0 mi WNW 11.5 mph 17.3 mph N/A   Clear
12:53 PM 59.0 °F - 30.9 °F 35% 30.11 in 10.0 mi West 10.4 mph - N/A   Clear
1:53 PM 62.1 °F - 28.9 °F 29% 30.09 in 10.0 mi WNW 10.4 mph - N/A   Clear
3:53 PM 64.0 °F - 30.0 °F 28% 30.07 in 10.0 mi WNW 10.4 mph - N/A   Clear
4:53 PM 64.0 °F - 30.9 °F 29% 30.06 in 10.0 mi WSW 6.9 mph - N/A   Clear
5:53 PM 57.9 °F - 34.0 °F 41% 30.07 in 10.0 mi SE 9.2 mph - N/A   Clear
6:53 PM 52.0 °F - 32.0 °F 47% 30.08 in 10.0 mi South 10.4 mph - N/A   Clear
7:53 PM 51.1 °F - 30.0 °F 44% 30.09 in 10.0 mi South 8.1 mph - N/A   Clear
8:53 PM 50.0 °F - 30.0 °F 46% 30.09 in 10.0 mi South 6.9 mph - N/A   Clear
9:53 PM 48.9 °F - 30.0 °F 48% 30.09 in 10.0 mi South 5.8 mph - N/A   Clear
10:53 PM 48.9 °F - 28.9 °F 46% 30.08 in 10.0 mi South 5.8 mph - N/A   Clear
11:53 PM 50.0 °F - 28.9 °F 44% 30.07 in 10.0 mi South 8.1 mph - N/A   Clear